TimeCST,TemperatureF,Dew PointF,Humidity,Sea Level PressureIn,VisibilityMPH,Wind Direction,Wind SpeedMPH,Gust SpeedMPH,PrecipitationIn,Events,Conditions,WindDirDegrees,DateUTC
12:53 AM,41.0,16.0,36,30.19,10.0,North,5.8,-,N/A,,Clear,350,2008-01-30 06:53:00
1:53 AM,39.0,17.1,41,30.18,10.0,North,5.8,-,N/A,,Clear,10,2008-01-30 07:53:00
2:53 AM,37.0,16.0,42,30.18,10.0,NNE,3.5,-,N/A,,Clear,20,2008-01-30 08:53:00
3:53 AM,36.0,15.1,43,30.18,10.0,Calm,Calm,-,N/A,,Clear,0,2008-01-30 09:53:00
4:53 AM,34.0,16.0,48,30.18,10.0,NE,4.6,-,N/A,,Clear,40,2008-01-30 10:53:00
5:53 AM,33.1,17.1,52,30.19,10.0,ENE,3.5,-,N/A,,Clear,70,2008-01-30 11:53:00
6:53 AM,33.1,19.0,56,30.20,10.0,ENE,5.8,-,N/A,,Clear,70,2008-01-30 12:53:00
7:53 AM,35.1,19.9,54,30.21,10.0,East,3.5,-,N/A,,Clear,80,2008-01-30 13:53:00
8:53 AM,39.0,18.0,43,30.22,10.0,East,12.7,-,N/A,,Clear,90,2008-01-30 14:53:00
9:53 AM,43.0,19.0,38,30.22,10.0,East,11.5,-,N/A,,Clear,100,2008-01-30 15:53:00
10:53 AM,46.9,18.0,32,30.22,10.0,East,12.7,-,N/A,,Clear,100,2008-01-30 16:53:00
11:53 AM,48.9,16.0,27,30.19,10.0,East,15.0,20.7,N/A,,Clear,100,2008-01-30 17:53:00
12:53 PM,48.9,19.0,31,30.16,10.0,SE,9.2,16.1,N/A,,Clear,140,2008-01-30 18:53:00
1:53 PM,51.1,18.0,27,30.13,10.0,SE,6.9,16.1,N/A,,Clear,130,2008-01-30 19:53:00
2:53 PM,52.0,21.0,30,30.11,10.0,ESE,6.9,-,N/A,,Clear,110,2008-01-30 20:53:00
3:53 PM,52.0,21.0,30,30.07,10.0,SE,9.2,-,N/A,,Clear,130,2008-01-30 21:53:00
4:53 PM,51.1,24.1,35,30.08,10.0,SSE,9.2,-,N/A,,Clear,150,2008-01-30 22:53:00
5:53 PM,48.9,23.0,36,30.08,10.0,South,4.6,-,N/A,,Mostly Cloudy,170,2008-01-30 23:53:00
6:53 PM,48.0,27.0,44,30.06,10.0,SE,6.9,-,N/A,,Overcast,130,2008-01-31 00:53:00
7:53 PM,48.0,26.1,42,30.04,10.0,East,5.8,-,N/A,,Mostly Cloudy,100,2008-01-31 01:53:00
8:53 PM,46.9,27.0,46,30.05,10.0,SE,4.6,-,N/A,,Mostly Cloudy,130,2008-01-31 02:53:00
9:53 PM,48.9,26.1,41,30.03,10.0,ESE,8.1,-,0.00,,Mostly Cloudy,120,2008-01-31 03:53:00
10:53 PM,48.0,28.0,46,30.03,10.0,SE,10.4,-,N/A,,Overcast,140,2008-01-31 04:53:00
11:53 PM,48.0,28.0,46,30.02,10.0,SE,8.1,-,N/A,,Overcast,140,2008-01-31 05:53:00